,,,PA_Meas_PMT16A,,PR_Meas_QMR101_102,,RH_Meas_QMH101,,SR_Meas_QMS101,,TA_Meas_QMH101,,GenWind,,GenWind,
date,time,status,PA,status,PR,status,RH,status,SR,status,TA,status,DirAvg,status,SpdAvg,
2011-02-04, 00:00:04,VALID,998.987,VALID,0,VALID,93.4476,VALID,0,VALID,22.7452,VALID,118,VALID,0.857031,
2011-02-04, 00:01:04,VALID,998.977,VALID,0,VALID,93.4552,VALID,0,VALID,22.7452,VALID,112,VALID,0.642187,
2011-02-04, 00:02:04,VALID,998.972,VALID,0,VALID,93.4552,VALID,0,VALID,22.7647,VALID,111,VALID,0.515625,
2011-02-04, 00:03:04,VALID,998.967,VALID,0,VALID,93.4476,VALID,0,VALID,22.7842,VALID,111,VALID,0.435547,
2011-02-04, 00:04:04,VALID,998.979,VALID,0,VALID,93.4476,VALID,0,VALID,22.8232,VALID,111,VALID,0.505859,
2011-02-04, 00:05:04,VALID,998.993,VALID,0,VALID,93.4476,VALID,0,VALID,22.8232,VALID,111,VALID,0.417578,
2011-02-04, 00:06:04,VALID,998.972,VALID,0,VALID,93.4552,VALID,0,VALID,22.8232,VALID,49,VALID,0.780859,
2011-02-04, 00:07:04,VALID,998.977,VALID,0,VALID,93.4552,VALID,0,VALID,22.8037,VALID,31,VALID,0.935156,
2011-02-04, 00:08:04,VALID,998.949,VALID,0,VALID,93.4705,VALID,0,VALID,22.8037,VALID,32,VALID,0.879297,
2011-02-04, 00:09:04,VALID,998.976,VALID,0,VALID,93.4552,VALID,0,VALID,22.8232,VALID,59,VALID,1.20664,
2011-02-04, 00:10:04,VALID,998.936,VALID,0,VALID,93.4476,VALID,0,VALID,22.8427,VALID,56,VALID,1.53828,
2011-02-04, 00:11:04,VALID,998.931,VALID,0,VALID,93.4705,VALID,0,VALID,22.8427,VALID,56,VALID,1.18438,
2011-02-04, 00:12:04,VALID,998.903,VALID,0,VALID,93.4552,VALID,0,VALID,22.8623,VALID,62,VALID,1.30117,
2011-02-04, 00:13:04,VALID,998.884,VALID,0,VALID,93.4705,VALID,0,VALID,22.8623,VALID,71,VALID,1.18125,
2011-02-04, 00:14:04,VALID,998.847,VALID,0,VALID,93.4628,VALID,0,VALID,22.8427,VALID,75,VALID,1.32695,
2011-02-04, 00:15:04,VALID,998.809,VALID,0,VALID,93.4781,VALID,0,VALID,22.8427,VALID,77,VALID,0.953906,
2011-02-04, 00:16:04,VALID,998.755,VALID,0,VALID,93.4705,VALID,0,VALID,22.8427,VALID,87,VALID,0.816797,
2011-02-04, 00:17:04,VALID,998.725,VALID,0,VALID,93.4705,VALID,0,VALID,22.8232,VALID,87,VALID,0.903125,
2011-02-04, 00:18:04,VALID,998.682,VALID,0,VALID,93.4628,VALID,0,VALID,22.8037,VALID,100,VALID,0.991016,
2011-02-04, 00:19:04,VALID,998.639,VALID,0,VALID,93.4857,VALID,0,VALID,22.8037,VALID,106,VALID,1.08906,
2011-02-04, 00:20:04,VALID,998.661,VALID,0,VALID,93.4857,VALID,0,VALID,22.8037,VALID,121,VALID,1.16484,
2011-02-04, 00:21:04,VALID,998.644,VALID,0,VALID,93.4705,VALID,0,VALID,22.8037,VALID,120,VALID,1.15898,
2011-02-04, 00:22:04,VALID,998.65,VALID,0,VALID,93.4857,VALID,0,VALID,22.8037,VALID,114,VALID,1.4625,
2011-02-04, 00:23:04,VALID,998.638,VALID,0,VALID,93.4781,VALID,0,VALID,22.8037,VALID,112,VALID,1.55586,
2011-02-04, 00:24:04,VALID,998.643,VALID,0,VALID,93.4857,VALID,0,VALID,22.8427,VALID,121,VALID,1.60586,
2011-02-04, 00:25:04,VALID,998.641,VALID,0,VALID,93.4857,VALID,0,VALID,22.8427,VALID,117,VALID,1.61094,
2011-02-04, 00:26:04,VALID,998.649,VALID,0,VALID,93.4934,VALID,0,VALID,22.8427,VALID,120,VALID,1.92422,
2011-02-04, 00:27:04,VALID,998.629,VALID,0,VALID,93.4857,VALID,0,VALID,22.8232,VALID,119,VALID,1.87148,
2011-02-04, 00:28:04,VALID,998.586,VALID,0,VALID,93.4705,VALID,0,VALID,22.8427,VALID,122,VALID,2.4957,
2011-02-04, 00:29:04,VALID,998.602,VALID,0,VALID,93.4781,VALID,0,VALID,22.8232,VALID,114,VALID,2.49141,
2011-02-04, 00:30:04,VALID,998.567,VALID,0,VALID,93.4934,VALID,0,VALID,22.8427,VALID,117,VALID,1.94687,
2011-02-04, 00:31:04,VALID,998.541,VALID,0,VALID,93.4934,VALID,0,VALID,22.8623,VALID,117,VALID,1.83438,
2011-02-04, 00:32:04,VALID,998.536,VALID,0,VALID,93.4857,VALID,0,VALID,22.8818,VALID,116,VALID,1.83477,
2011-02-04, 00:33:04,VALID,998.504,VALID,0,VALID,93.4857,VALID,0,VALID,22.9208,VALID,120,VALID,1.7793,
2011-02-04, 00:34:04,VALID,998.507,VALID,0,VALID,93.4705,VALID,0,VALID,22.9208,VALID,117,VALID,1.69102,
2011-02-04, 00:35:04,VALID,998.516,VALID,0,VALID,93.4628,VALID,0,VALID,22.9208,VALID,131,VALID,1.44258,
2011-02-04, 00:36:04,VALID,998.513,VALID,0,VALID,93.4705,VALID,0,VALID,22.9208,VALID,129,VALID,1.68594,
2011-02-04, 00:37:04,VALID,998.51,VALID,0,VALID,93.4857,VALID,0,VALID,22.9208,VALID,135,VALID,1.61641,
2011-02-04, 00:38:04,VALID,998.491,VALID,0,VALID,93.4857,VALID,0,VALID,22.9013,VALID,119,VALID,1.11172,
2011-02-04, 00:39:04,VALID,998.457,VALID,0,VALID,93.5163,VALID,0,VALID,22.9208,VALID,131,VALID,0.891016,
2011-02-04, 00:40:04,VALID,998.413,VALID,0,VALID,93.4934,VALID,0,VALID,22.9208,VALID,116,VALID,1.10898,
2011-02-04, 00:41:04,VALID,998.414,VALID,0,VALID,93.4934,VALID,0,VALID,22.9208,VALID,114,VALID,1.18164,
2011-02-04, 00:42:04,VALID,998.377,VALID,0,VALID,93.501,VALID,0,VALID,22.88,VALID,112,VALID,0.792578,
2011-02-04, 00:43:04,VALID,998.333,VALID,0,VALID,93.4781,VALID,0,VALID,22.9208,VALID,112,VALID,1.03281,
2011-02-04, 00:44:04,VALID,998.306,VALID,0,VALID,93.4934,VALID,0,VALID,22.9208,VALID,105,VALID,0.933594,
2011-02-04, 00:45:04,VALID,998.305,VALID,0,VALID,93.4857,VALID,0,VALID,22.9208,VALID,105,VALID,0.764453,
2011-02-04, 00:46:04,VALID,998.31,VALID,0,VALID,93.4857,VALID,0,VALID,22.9208,VALID,104,VALID,0.777344,
2011-02-04, 00:47:04,VALID,998.303,VALID,0,VALID,93.4781,VALID,0,VALID,22.9208,VALID,96,VALID,0.889063,
2011-02-04, 00:48:04,VALID,998.299,VALID,0,VALID,93.4934,VALID,0,VALID,22.9208,VALID,96,VALID,0.544922,
2011-02-04, 00:49:04,VALID,998.34,VALID,0,VALID,93.4781,VALID,0,VALID,22.9403,VALID,94,VALID,0.584766,
2011-02-04, 00:50:04,VALID,998.301,VALID,0,VALID,93.501,VALID,0,VALID,22.9013,VALID,71,VALID,0.483984,
2011-02-04, 00:51:04,VALID,998.318,VALID,0,VALID,93.4934,VALID,0,VALID,22.8818,VALID,59,VALID,0.640625,
2011-02-04, 00:52:04,VALID,998.326,VALID,0,VALID,93.501,VALID,0,VALID,22.8623,VALID,59,VALID,0.654297,
2011-02-04, 00:53:04,VALID,998.332,VALID,0,VALID,93.4857,VALID,0,VALID,22.8623,VALID,59,VALID,1.02266,
2011-02-04, 00:54:04,VALID,998.327,VALID,0,VALID,93.501,VALID,0,VALID,22.8623,VALID,59,VALID,0.78125,
2011-02-04, 00:55:04,VALID,998.335,VALID,0,VALID,93.5086,VALID,0,VALID,22.8623,VALID,59,VALID,0.811719,
2011-02-04, 00:56:04,VALID,998.345,VALID,0,VALID,93.4934,VALID,0,VALID,22.8623,VALID,59,VALID,0.546094,
2011-02-04, 00:57:04,VALID,998.315,VALID,0,VALID,93.4781,VALID,0,VALID,22.8623,VALID,59,VALID,0.508984,
2011-02-04, 00:58:04,VALID,998.363,VALID,0,VALID,93.5086,VALID,0,VALID,22.8835,VALID,59,VALID,0.491797,
2011-02-04, 00:59:04,VALID,998.375,VALID,0,VALID,93.4781,VALID,0,VALID,22.8623,VALID,59,VALID,0.422656,
2011-02-04, 01:00:04,VALID,998.385,VALID,0,VALID,93.501,VALID,0,VALID,22.8818,VALID,59,VALID,0.287891,
2011-02-04, 01:01:04,VALID,998.401,VALID,0,VALID,93.501,VALID,0,VALID,22.8818,VALID,59,VALID,0.348437,
2011-02-04, 01:02:04,VALID,998.396,VALID,0,VALID,93.5163,VALID,0,VALID,22.8818,VALID,59,VALID,0.305078,
2011-02-04, 01:03:04,VALID,998.391,VALID,0,VALID,93.5239,VALID,0,VALID,22.8623,VALID,59,VALID,0.10625,
2011-02-04, 01:04:04,VALID,998.411,VALID,0,VALID,93.4857,VALID,0,VALID,22.8835,VALID,59,VALID,0,
2011-02-04, 01:05:04,VALID,998.38,VALID,0,VALID,93.501,VALID,0,VALID,22.8818,VALID,59,VALID,0,
2011-02-04, 01:06:04,VALID,998.358,VALID,0,VALID,93.5163,VALID,0,VALID,22.8623,VALID,59,VALID,0,
2011-02-04, 01:07:04,VALID,998.348,VALID,0,VALID,93.5086,VALID,0,VALID,22.8623,VALID,59,VALID,0,
2011-02-04, 01:08:04,VALID,998.336,VALID,0,VALID,93.501,VALID,0,VALID,22.8605,VALID,59,VALID,0,
2011-02-04, 01:09:04,VALID,998.359,VALID,0,VALID,93.5163,VALID,0,VALID,22.9013,VALID,59,VALID,0.00898437,
2011-02-04, 01:10:04,VALID,998.366,VALID,0,VALID,93.501,VALID,0,VALID,22.9013,VALID,59,VALID,0,
2011-02-04, 01:11:04,VALID,998.367,VALID,0,VALID,93.4857,VALID,0,VALID,22.8818,VALID,59,VALID,0,
2011-02-04, 01:12:04,VALID,998.371,VALID,0,VALID,93.501,VALID,0,VALID,22.8623,VALID,59,VALID,0,
2011-02-04, 01:13:04,VALID,998.359,VALID,0,VALID,93.5086,VALID,0,VALID,22.8818,VALID,59,VALID,0,
2011-02-04, 01:14:04,VALID,998.353,VALID,0,VALID,93.501,VALID,0,VALID,22.8818,VALID,59,VALID,0,
2011-02-04, 01:15:04,VALID,998.362,VALID,0,VALID,93.501,VALID,0,VALID,22.9013,VALID,59,VALID,0,
2011-02-04, 01:16:04,VALID,998.342,VALID,0,VALID,93.5163,VALID,0,VALID,22.9013,VALID,59,VALID,0,
2011-02-04, 01:17:04,VALID,998.34,VALID,0,VALID,93.5086,VALID,0,VALID,22.9013,VALID,59,VALID,0,
2011-02-04, 01:18:04,VALID,998.287,VALID,0,VALID,93.5239,VALID,0,VALID,22.9013,VALID,59,VALID,0,
2011-02-04, 01:19:04,VALID,998.266,VALID,0,VALID,93.5163,VALID,0,VALID,22.9208,VALID,59,VALID,0.440234,
2011-02-04, 01:20:04,VALID,998.232,VALID,0,VALID,93.4934,VALID,0,VALID,22.9225,VALID,59,VALID,0.394922,
2011-02-04, 01:21:04,VALID,998.224,VALID,0,VALID,93.5163,VALID,0,VALID,22.919,VALID,59,VALID,0.560156,
2011-02-04, 01:22:04,VALID,998.205,VALID,0,VALID,93.5239,VALID,0,VALID,22.9208,VALID,59,VALID,0.491797,
2011-02-04, 01:23:04,VALID,998.15,VALID,0,VALID,93.5086,VALID,0,VALID,22.9013,VALID,59,VALID,0.505078,
2011-02-04, 01:24:04,VALID,998.116,VALID,0,VALID,93.5163,VALID,0,VALID,22.9013,VALID,59,VALID,0.571484,
2011-02-04, 01:25:04,VALID,998.127,VALID,0,VALID,93.501,VALID,0,VALID,22.9013,VALID,31,VALID,0.705078,
2011-02-04, 01:26:04,VALID,998.144,VALID,0,VALID,93.5163,VALID,0,VALID,22.9208,VALID,25,VALID,0.783594,
2011-02-04, 01:27:04,VALID,998.124,VALID,0,VALID,93.5086,VALID,0,VALID,22.9208,VALID,25,VALID,0.712109,
2011-02-04, 01:28:04,VALID,998.142,VALID,0,VALID,93.5239,VALID,0,VALID,22.9403,VALID,25,VALID,0.730078,
2011-02-04, 01:29:04,VALID,998.172,VALID,0,VALID,93.5086,VALID,0,VALID,22.9208,VALID,25,VALID,0.592578,
2011-02-04, 01:30:04,VALID,998.159,VALID,0,VALID,93.501,VALID,0,VALID,22.919,VALID,25,VALID,0.423438,
2011-02-04, 01:31:04,VALID,998.167,VALID,0,VALID,93.5086,VALID,0,VALID,22.9208,VALID,25,VALID,0.495703,
2011-02-04, 01:32:04,VALID,998.177,VALID,0,VALID,93.4934,VALID,0,VALID,22.9403,VALID,25,VALID,0.521484,
2011-02-04, 01:33:04,VALID,998.168,VALID,0,VALID,93.501,VALID,0,VALID,22.9598,VALID,25,VALID,0.48125,
2011-02-04, 01:34:04,VALID,998.178,VALID,0,VALID,93.5315,VALID,0,VALID,22.9598,VALID,25,VALID,0.405078,
2011-02-04, 01:35:04,VALID,998.162,VALID,0,VALID,93.5163,VALID,0,VALID,22.9793,VALID,25,VALID,0.463672,
2011-02-04, 01:36:04,VALID,998.121,VALID,0,VALID,93.501,VALID,0,VALID,22.9793,VALID,25,VALID,0.480078,
2011-02-04, 01:37:04,VALID,998.114,VALID,0,VALID,93.501,VALID,0,VALID,23.0006,VALID,25,VALID,0.324609,
2011-02-04, 01:38:04,VALID,998.08,VALID,0,VALID,93.5086,VALID,0,VALID,22.9581,VALID,25,VALID,0.289453,
2011-02-04, 01:39:04,VALID,998.038,VALID,0,VALID,93.5163,VALID,0,VALID,22.9793,VALID,25,VALID,0.301562,
2011-02-04, 01:40:04,VALID,998.004,VALID,0,VALID,93.501,VALID,0,VALID,22.9793,VALID,25,VALID,0.256641,
2011-02-04, 01:41:04,VALID,997.986,VALID,0,VALID,93.5163,VALID,0,VALID,22.9793,VALID,25,VALID,0.0351563,
2011-02-04, 01:42:04,VALID,997.961,VALID,0,VALID,93.5086,VALID,0,VALID,22.9598,VALID,25,VALID,0,
2011-02-04, 01:43:04,VALID,997.946,VALID,0,VALID,93.5239,VALID,0,VALID,22.9598,VALID,25,VALID,0,
2011-02-04, 01:44:04,VALID,997.938,VALID,0,VALID,93.5163,VALID,0,VALID,22.9793,VALID,25,VALID,0,
2011-02-04, 01:45:04,VALID,997.929,VALID,0,VALID,93.5163,VALID,0,VALID,22.9598,VALID,25,VALID,0,
2011-02-04, 01:46:04,VALID,997.928,VALID,0,VALID,93.5239,VALID,0,VALID,22.9598,VALID,25,VALID,0,
2011-02-04, 01:47:04,VALID,997.943,VALID,0,VALID,93.5239,VALID,0,VALID,22.9598,VALID,25,VALID,0,
2011-02-04, 01:48:04,VALID,997.956,VALID,0,VALID,93.5239,VALID,0,VALID,22.9598,VALID,25,VALID,0,
2011-02-04, 01:49:04,VALID,997.994,VALID,0,VALID,93.5086,VALID,0,VALID,22.9598,VALID,25,VALID,0.065625,
2011-02-04, 01:50:04,VALID,997.989,VALID,0,VALID,93.5163,VALID,0,VALID,22.9598,VALID,25,VALID,0,
2011-02-04, 01:51:04,VALID,997.986,VALID,0,VALID,93.5163,VALID,0,VALID,22.9598,VALID,25,VALID,0.0328125,
2011-02-04, 01:52:04,VALID,997.997,VALID,0,VALID,93.5163,VALID,0,VALID,22.919,VALID,25,VALID,0.137109,
2011-02-04, 01:53:04,VALID,997.985,VALID,0,VALID,93.5086,VALID,0,VALID,22.9598,VALID,25,VALID,0.388281,
2011-02-04, 01:54:04,VALID,997.956,VALID,0,VALID,93.501,VALID,0,VALID,22.9598,VALID,25,VALID,0.38125,
2011-02-04, 01:55:04,VALID,997.987,VALID,0,VALID,93.5391,VALID,0,VALID,22.9598,VALID,25,VALID,0.446875,
2011-02-04, 01:56:04,VALID,997.97,VALID,0,VALID,93.5391,VALID,0,VALID,22.9598,VALID,25,VALID,0.442578,
2011-02-04, 01:57:04,VALID,997.946,VALID,0,VALID,93.5239,VALID,0,VALID,22.9403,VALID,164,VALID,0.955859,
2011-02-04, 01:58:04,VALID,997.906,VALID,0,VALID,93.5163,VALID,0,VALID,22.9793,VALID,164,VALID,1.01914,
2011-02-04, 01:59:04,VALID,997.918,VALID,0,VALID,93.5239,VALID,0,VALID,22.9793,VALID,164,VALID,1.07656,
2011-02-04, 02:00:04,VALID,997.898,VALID,0,VALID,93.5773,VALID,0,VALID,22.9403,VALID,163,VALID,1.04492,
2011-02-04, 02:01:04,VALID,997.899,VALID,0,VALID,93.5315,VALID,0,VALID,22.9988,VALID,167,VALID,1.19648,
2011-02-04, 02:02:04,VALID,997.886,VALID,0,VALID,93.5086,VALID,0,VALID,23.0166,VALID,167,VALID,1,
2011-02-04, 02:03:04,VALID,997.876,VALID,0,VALID,93.501,VALID,0,VALID,23.1159,VALID,179,VALID,1.74844,
2011-02-04, 02:04:04,VALID,997.86,VALID,0,VALID,93.501,VALID,0,VALID,23.1744,VALID,183,VALID,1.55391,
2011-02-04, 02:05:04,VALID,997.827,VALID,0,VALID,93.5086,VALID,0,VALID,23.1939,VALID,181,VALID,1.61367,
2011-02-04, 02:06:04,VALID,997.82,VALID,0,VALID,93.4934,VALID,0,VALID,23.1939,VALID,186,VALID,1.93203,
2011-02-04, 02:07:04,VALID,997.793,VALID,0,VALID,93.4857,VALID,0,VALID,23.1354,VALID,184,VALID,1.81562,
2011-02-04, 02:08:04,VALID,997.783,VALID,0,VALID,93.4934,VALID,0,VALID,23.1549,VALID,185,VALID,1.24023,
2011-02-04, 02:09:04,VALID,997.743,VALID,0,VALID,93.4857,VALID,0,VALID,23.1744,VALID,184,VALID,1.27422,
2011-02-04, 02:10:04,VALID,997.704,VALID,0,VALID,93.5086,VALID,0,VALID,23.1549,VALID,181,VALID,1.16055,
2011-02-04, 02:11:04,VALID,997.678,VALID,0,VALID,93.501,VALID,0,VALID,23.1744,VALID,181,VALID,1.00977,
2011-02-04, 02:12:04,VALID,997.667,VALID,0,VALID,93.4857,VALID,0,VALID,23.1744,VALID,181,VALID,0.738281,
2011-02-04, 02:13:04,VALID,997.632,VALID,0,VALID,93.4781,VALID,0,VALID,23.1744,VALID,181,VALID,0.500781,
2011-02-04, 02:14:04,VALID,997.576,VALID,0,VALID,93.4934,VALID,0,VALID,23.1549,VALID,181,VALID,0.287891,
2011-02-04, 02:15:04,VALID,997.576,VALID,0,VALID,93.501,VALID,0,VALID,23.1354,VALID,181,VALID,0.434766,
2011-02-04, 02:16:04,VALID,997.547,VALID,0,VALID,93.5239,VALID,0,VALID,23.1159,VALID,181,VALID,0.402344,
2011-02-04, 02:17:04,VALID,997.514,VALID,0,VALID,93.5086,VALID,0,VALID,23.0769,VALID,181,VALID,0.520312,
2011-02-04, 02:18:04,VALID,997.494,VALID,0,VALID,93.5086,VALID,0,VALID,23.0769,VALID,181,VALID,0.441406,
2011-02-04, 02:19:04,VALID,997.445,VALID,0,VALID,93.5239,VALID,0,VALID,23.0769,VALID,181,VALID,0.323438,
2011-02-04, 02:20:04,VALID,997.475,VALID,0,VALID,93.5163,VALID,0,VALID,23.0769,VALID,181,VALID,0.0960938,
2011-02-04, 02:21:04,VALID,997.469,VALID,0,VALID,93.5163,VALID,0,VALID,23.0573,VALID,181,VALID,0,
2011-02-04, 02:22:04,VALID,997.474,VALID,0,VALID,93.5315,VALID,0,VALID,23.0378,VALID,181,VALID,0.389844,
2011-02-04, 02:23:04,VALID,997.442,VALID,0,VALID,93.5239,VALID,0,VALID,23.0573,VALID,181,VALID,0.364062,
2011-02-04, 02:24:04,VALID,997.419,VALID,0,VALID,93.5086,VALID,0,VALID,23.0769,VALID,181,VALID,0.167969,
2011-02-04, 02:25:04,VALID,997.451,VALID,0,VALID,93.5163,VALID,0,VALID,23.0769,VALID,181,VALID,0.192578,
2011-02-04, 02:26:04,VALID,997.446,VALID,0,VALID,93.5086,VALID,0,VALID,23.0556,VALID,181,VALID,0,
2011-02-04, 02:27:04,VALID,997.461,VALID,0,VALID,93.5239,VALID,0,VALID,23.0769,VALID,181,VALID,0.583203,
2011-02-04, 02:28:04,VALID,997.439,VALID,0,VALID,93.5239,VALID,0,VALID,23.0964,VALID,181,VALID,0.480859,
2011-02-04, 02:29:04,VALID,997.436,VALID,0,VALID,93.5315,VALID,0,VALID,23.0769,VALID,181,VALID,0.474609,
2011-02-04, 02:30:04,VALID,997.383,VALID,0,VALID,93.5163,VALID,0,VALID,23.0769,VALID,325,VALID,1.13867,
2011-02-04, 02:31:04,VALID,997.402,VALID,0,VALID,93.5239,VALID,0,VALID,23.0769,VALID,325,VALID,0.808203,
2011-02-04, 02:32:04,VALID,997.371,VALID,0,VALID,93.5239,VALID,0,VALID,23.0573,VALID,325,VALID,0.426172,
2011-02-04, 02:33:04,VALID,997.367,VALID,0,VALID,93.5239,VALID,0,VALID,23.0573,VALID,325,VALID,0.301953,
2011-02-04, 02:34:04,VALID,997.335,VALID,0,VALID,93.5468,VALID,0,VALID,23.0378,VALID,325,VALID,0.383203,
2011-02-04, 02:35:04,VALID,997.327,VALID,0,VALID,93.5163,VALID,0,VALID,23.0378,VALID,325,VALID,0.625781,
2011-02-04, 02:36:04,VALID,997.319,VALID,0,VALID,93.5315,VALID,0,VALID,23.0183,VALID,334,VALID,0.775,
2011-02-04, 02:37:04,VALID,997.26,VALID,0,VALID,93.5697,VALID,0,VALID,22.9988,VALID,14,VALID,0.997266,
2011-02-04, 02:38:04,VALID,997.251,VALID,0,VALID,93.5544,VALID,0,VALID,22.9793,VALID,14,VALID,0.880469,
2011-02-04, 02:39:04,VALID,997.24,VALID,0,VALID,93.5391,VALID,0,VALID,22.9598,VALID,18,VALID,0.805859,
2011-02-04, 02:40:04,VALID,997.216,VALID,0,VALID,93.5391,VALID,0,VALID,22.9598,VALID,48,VALID,1.00234,
2011-02-04, 02:41:04,VALID,997.183,VALID,0,VALID,93.562,VALID,0,VALID,22.9403,VALID,65,VALID,1.36484,
2011-02-04, 02:42:04,VALID,997.104,VALID,0,VALID,93.5468,VALID,0,VALID,22.9793,VALID,54,VALID,1.59297,
2011-02-04, 02:43:04,VALID,997.196,VALID,0,VALID,93.5391,VALID,0,VALID,22.9988,VALID,69,VALID,0.810938,
2011-02-04, 02:44:04,VALID,997.175,VALID,0,VALID,93.5544,VALID,0,VALID,22.9988,VALID,94,VALID,1.26523,
2011-02-04, 02:45:04,VALID,997.193,VALID,0,VALID,93.5391,VALID,0,VALID,22.9793,VALID,60,VALID,1.50625,
2011-02-04, 02:46:04,VALID,997.225,VALID,0,VALID,93.5315,VALID,0,VALID,22.9403,VALID,69,VALID,1.27852,
2011-02-04, 02:47:04,VALID,997.241,VALID,0,VALID,93.5468,VALID,0,VALID,22.9208,VALID,75,VALID,1.25937,
2011-02-04, 02:48:04,VALID,997.229,VALID,0,VALID,93.5697,VALID,0,VALID,22.9013,VALID,65,VALID,1.34883,
2011-02-04, 02:49:04,VALID,997.237,VALID,0,VALID,93.5468,VALID,0,VALID,22.8818,VALID,55,VALID,1.21211,
2011-02-04, 02:50:04,VALID,997.269,VALID,0,VALID,93.5697,VALID,0,VALID,22.8818,VALID,53,VALID,1.05273,
2011-02-04, 02:51:04,VALID,997.316,VALID,0,VALID,93.5773,VALID,0,VALID,22.8427,VALID,79,VALID,0.812109,
2011-02-04, 02:52:04,VALID,997.299,VALID,0,VALID,93.5697,VALID,0,VALID,22.8427,VALID,62,VALID,1.23867,
2011-02-04, 02:53:04,VALID,997.256,VALID,0,VALID,93.5773,VALID,0,VALID,22.8427,VALID,44,VALID,1.41367,
2011-02-04, 02:54:04,VALID,997.301,VALID,0,VALID,93.5773,VALID,0,VALID,22.8232,VALID,55,VALID,1.29414,
2011-02-04, 02:55:04,VALID,997.278,VALID,0,VALID,93.5926,VALID,0,VALID,22.8427,VALID,58,VALID,1.37812,
2011-02-04, 02:56:04,VALID,997.251,VALID,0,VALID,93.5697,VALID,0,VALID,22.8427,VALID,47,VALID,1.52031,
2011-02-04, 02:57:04,VALID,997.22,VALID,0,VALID,93.5697,VALID,0,VALID,22.8427,VALID,39,VALID,1.51563,
2011-02-04, 02:58:04,VALID,997.224,VALID,0,VALID,93.5849,VALID,0,VALID,22.8427,VALID,34,VALID,1.32031,
2011-02-04, 02:59:04,VALID,997.192,VALID,0,VALID,93.5849,VALID,0,VALID,22.8427,VALID,35,VALID,0.965625,
2011-02-04, 03:00:04,VALID,997.218,VALID,0,VALID,93.5849,VALID,0,VALID,22.8427,VALID,55,VALID,1.14219,
2011-02-04, 03:01:04,VALID,997.186,VALID,0,VALID,93.562,VALID,0,VALID,22.8427,VALID,57,VALID,1.75937,
2011-02-04, 03:02:04,VALID,997.16,VALID,0,VALID,93.5773,VALID,0,VALID,22.8427,VALID,42,VALID,1.36523,
2011-02-04, 03:03:04,VALID,997.151,VALID,0,VALID,93.5773,VALID,0,VALID,22.8215,VALID,46,VALID,1.29102,
2011-02-04, 03:04:04,VALID,997.146,VALID,0,VALID,93.5544,VALID,0,VALID,22.8427,VALID,42,VALID,1.36953,
2011-02-04, 03:05:04,VALID,997.154,VALID,0,VALID,93.5926,VALID,0,VALID,22.8215,VALID,41,VALID,1.13594,
2011-02-04, 03:06:04,VALID,997.13,VALID,0,VALID,93.5773,VALID,0,VALID,22.8232,VALID,40,VALID,0.817578,
2011-02-04, 03:07:04,VALID,997.116,VALID,0,VALID,93.5773,VALID,0,VALID,22.8232,VALID,40,VALID,0.907812,
2011-02-04, 03:08:04,VALID,997.072,VALID,0,VALID,93.5849,VALID,0,VALID,22.8232,VALID,40,VALID,0.900781,
2011-02-04, 03:09:04,VALID,997.063,VALID,0,VALID,93.6078,VALID,0,VALID,22.7842,VALID,44,VALID,1.48203,
2011-02-04, 03:10:04,VALID,997.025,VALID,0,VALID,93.5926,VALID,0,VALID,22.763,VALID,49,VALID,1.30352,
2011-02-04, 03:11:04,VALID,997.049,VALID,0,VALID,93.5926,VALID,0,VALID,22.7647,VALID,47,VALID,0.944531,
2011-02-04, 03:12:04,VALID,997.08,VALID,0,VALID,93.5849,VALID,0.112286,VALID,22.7647,VALID,47,VALID,0.719531,
2011-02-04, 03:13:04,VALID,997.018,VALID,0,VALID,93.6002,VALID,0,VALID,22.7647,VALID,55,VALID,1.34648,
2011-02-04, 03:14:04,VALID,997.014,VALID,0,VALID,93.5926,VALID,0.112286,VALID,22.7045,VALID,53,VALID,1.07109,
2011-02-04, 03:15:04,VALID,997.018,VALID,0,VALID,93.6078,VALID,0,VALID,22.685,VALID,63,VALID,1.16758,
2011-02-04, 03:16:04,VALID,997.02,VALID,0,VALID,93.5926,VALID,0,VALID,22.7257,VALID,71,VALID,1.22617,
2011-02-04, 03:17:04,VALID,996.961,VALID,0,VALID,93.6078,VALID,0,VALID,22.7062,VALID,48,VALID,1.41523,
2011-02-04, 03:18:04,VALID,996.995,VALID,0,VALID,93.6002,VALID,0,VALID,22.6867,VALID,40,VALID,1.12227,
2011-02-04, 03:19:04,VALID,996.993,VALID,0,VALID,93.5926,VALID,0,VALID,22.7062,VALID,46,VALID,1.26563,
2011-02-04, 03:20:04,VALID,997.004,VALID,0,VALID,93.6002,VALID,0,VALID,22.6867,VALID,44,VALID,0.796484,
2011-02-04, 03:21:04,VALID,996.991,VALID,0,VALID,93.5926,VALID,0,VALID,22.7062,VALID,44,VALID,0.820703,
2011-02-04, 03:22:04,VALID,996.969,VALID,0,VALID,93.6078,VALID,0,VALID,22.6867,VALID,27,VALID,0.684375,
2011-02-04, 03:23:04,VALID,996.956,VALID,0,VALID,93.5849,VALID,0,VALID,22.6867,VALID,17,VALID,0.691016,
2011-02-04, 03:24:04,VALID,996.941,VALID,0,VALID,93.6078,VALID,0.112286,VALID,22.7062,VALID,17,VALID,0.707031,
2011-02-04, 03:25:04,VALID,996.91,VALID,0,VALID,93.5849,VALID,0,VALID,22.685,VALID,20,VALID,0.552344,
2011-02-04, 03:26:04,VALID,996.919,VALID,0,VALID,93.6002,VALID,0,VALID,22.7062,VALID,19,VALID,0.448828,
2011-02-04, 03:27:04,VALID,996.924,VALID,0,VALID,93.5926,VALID,0.112286,VALID,22.7062,VALID,19,VALID,0.169922,
2011-02-04, 03:28:04,VALID,996.894,VALID,0,VALID,93.6078,VALID,0,VALID,22.7062,VALID,19,VALID,0.08125,
2011-02-04, 03:29:04,VALID,996.925,VALID,0,VALID,93.5926,VALID,0,VALID,22.7257,VALID,19,VALID,0.126172,
2011-02-04, 03:30:04,VALID,996.942,VALID,0,VALID,93.6154,VALID,0,VALID,22.7257,VALID,19,VALID,0.179688,
2011-02-04, 03:31:04,VALID,996.937,VALID,0,VALID,93.6002,VALID,0,VALID,22.7257,VALID,19,VALID,0,
2011-02-04, 03:32:04,VALID,996.962,VALID,0,VALID,93.6002,VALID,0,VALID,22.7452,VALID,19,VALID,0,
2011-02-04, 03:33:04,VALID,996.952,VALID,0,VALID,93.5926,VALID,0,VALID,22.724,VALID,19,VALID,0,
2011-02-04, 03:34:04,VALID,996.977,VALID,0,VALID,93.6002,VALID,0,VALID,22.7452,VALID,19,VALID,0,
2011-02-04, 03:35:04,VALID,996.987,VALID,0,VALID,93.5926,VALID,0,VALID,22.7257,VALID,19,VALID,0,
2011-02-04, 03:36:04,VALID,996.971,VALID,0,VALID,93.6002,VALID,0.112286,VALID,22.7452,VALID,19,VALID,0,
2011-02-04, 03:37:04,VALID,996.99,VALID,0,VALID,93.5849,VALID,0.112286,VALID,22.724,VALID,19,VALID,0,
2011-02-04, 03:38:04,VALID,996.976,VALID,0,VALID,93.5926,VALID,0,VALID,22.7452,VALID,19,VALID,0,
2011-02-04, 03:39:04,VALID,996.977,VALID,0,VALID,93.5926,VALID,0.112286,VALID,22.7452,VALID,19,VALID,0,
2011-02-04, 03:40:04,VALID,996.99,VALID,0,VALID,93.6002,VALID,0,VALID,22.7452,VALID,19,VALID,0,
2011-02-04, 03:41:04,VALID,997,VALID,0,VALID,93.5849,VALID,0,VALID,22.7257,VALID,19,VALID,0,
2011-02-04, 03:42:04,VALID,997.008,VALID,0,VALID,93.6002,VALID,0,VALID,22.7452,VALID,19,VALID,0,
2011-02-04, 03:43:04,VALID,996.992,VALID,0,VALID,93.6002,VALID,0,VALID,22.7452,VALID,19,VALID,0,
2011-02-04, 03:44:04,VALID,997.043,VALID,0,VALID,93.6002,VALID,0,VALID,22.7647,VALID,19,VALID,0,
2011-02-04, 03:45:04,VALID,997.033,VALID,0,VALID,93.5926,VALID,0,VALID,22.8037,VALID,19,VALID,0,
2011-02-04, 03:46:04,VALID,997.046,VALID,0,VALID,93.5849,VALID,0,VALID,22.7842,VALID,19,VALID,0,
2011-02-04, 03:47:04,VALID,997.027,VALID,0,VALID,93.6002,VALID,0,VALID,22.7647,VALID,19,VALID,0,
2011-02-04, 03:48:04,VALID,997.086,VALID,0,VALID,93.6078,VALID,0,VALID,22.7647,VALID,19,VALID,0,